Weather History for Warrensburg, MO

Change the Weather History Date:

Friday, September 13, 2013

  Actual Average (KSZL) Record (KSZL)
Temperature  
Mean Temperature 64 °F -  
Max Temperature 77 °F 79 °F 93 °F (2002)
Min Temperature 51 °F 58 °F 38 °F (2014)
Degree Days  
Heating Degree Days 1    
Growing Degree Days 14 (Base 50)    
Moisture  
Dew Point 46 °F    
Average Humidity 56    
Maximum Humidity 88    
Minimum Humidity 29    
Precipitation  
Precipitation 0.00 in - - ()
Sea Level Pressure  
Sea Level Pressure 30.13 in    
Wind  
Wind Speed 0 mph (NNE)    
Max Wind Speed 9 mph    
Max Gust Speed 18 mph    
Visibility 10 miles    
Events      
Averages and records for this station are not official NWS values.
T = Trace of Precipitation, MM = Missing Value Source: NWS Daily Summary

Daily Weather History Graph

Daily Weather History Graph

Search for Another Location

Airport:

Trip Planner

Search our weather history database for the weather conditions in past years. The results will help you decide how hot, cold, wet, or windy it might be!

Date:

Astronomy

Sep. 13, 2013 Rise Set
Actual Time 6:55 AM CDT 7:26 PM CDT
Civil Twilight 6:28 AM CDT 7:52 PM CDT
Nautical Twilight 5:56 AM CDT 8:24 PM CDT
Astronomical Twilight 5:24 AM CDT 8:56 PM CDT
Moon 3:14 PM CDT (9/13) 12:27 AM CDT (9/13)
Length of Visible Light 13h 24m
Length of Day
12h 31m
First Quarter, 61% of the Moon is Illuminated
Sep 13
First Quarter
Sep 19
Full
Sep 26
Last Quarter
Oct 4
New
Oct 11
First Quarter

Hourly Weather History & Observations

Time (CDT) Temp. Dew Point Humidity Pressure Visibility Wind Dir Wind Speed Gust Speed Precip Events Conditions
12:15 AM 62.6 °F 46.4 °F 55% 30.14 in 10.0 mi Calm Calm - N/A   Clear
12:35 AM 62.6 °F 46.4 °F 55% 30.14 in 10.0 mi Calm Calm - N/A   Clear
12:55 AM 62.6 °F 46.4 °F 55% 30.14 in 10.0 mi Calm Calm - N/A   Clear
1:15 AM 60.8 °F 46.4 °F 59% 30.15 in 10.0 mi Calm Calm - N/A   Clear
1:35 AM 60.8 °F 46.4 °F 59% 30.15 in 10.0 mi Calm Calm - N/A   Clear
1:55 AM 60.8 °F 46.4 °F 59% 30.15 in 10.0 mi Calm Calm - N/A   Clear
2:15 AM 59.0 °F 46.4 °F 63% 30.15 in 10.0 mi Calm Calm - N/A   Clear
2:35 AM 59.0 °F 46.4 °F 63% 30.15 in 10.0 mi Calm Calm - N/A   Clear
2:55 AM 59.0 °F 46.4 °F 63% 30.15 in 10.0 mi Calm Calm - N/A   Clear
3:15 AM 57.2 °F 46.4 °F 67% 30.15 in 10.0 mi Calm Calm - N/A   Clear
3:35 AM 57.2 °F 46.4 °F 67% 30.15 in 10.0 mi Calm Calm - N/A   Clear
3:55 AM 57.2 °F 46.4 °F 67% 30.15 in 10.0 mi Calm Calm - N/A   Clear
4:15 AM 55.4 °F 46.4 °F 72% 30.15 in 10.0 mi Calm Calm - N/A   Clear
4:35 AM 55.4 °F 46.4 °F 72% 30.15 in 10.0 mi Calm Calm - N/A   Clear
4:55 AM 53.6 °F 46.4 °F 77% 30.15 in 10.0 mi Calm Calm - N/A   Clear
5:15 AM 53.6 °F 46.4 °F 77% 30.16 in 10.0 mi Calm Calm - N/A   Clear
5:35 AM 53.6 °F 46.4 °F 77% 30.16 in 10.0 mi Calm Calm - N/A   Clear
5:55 AM 53.6 °F 46.4 °F 77% 30.17 in 10.0 mi Calm Calm - N/A   Clear
6:15 AM 53.6 °F 48.2 °F 82% 30.17 in 10.0 mi Calm Calm - N/A   Clear
6:35 AM 51.8 °F 48.2 °F 88% 30.17 in 10.0 mi Calm Calm - N/A   Clear
6:55 AM 51.8 °F 48.2 °F 88% 30.18 in 10.0 mi Calm Calm - N/A   Clear
7:15 AM 53.6 °F 48.2 °F 82% 30.18 in 10.0 mi Calm Calm - N/A   Clear
7:35 AM 53.6 °F 48.2 °F 82% 30.18 in 10.0 mi Calm Calm - N/A   Clear
7:55 AM 53.6 °F 48.2 °F 82% 30.18 in 10.0 mi Calm Calm - N/A   Clear
8:15 AM 55.4 °F 50.0 °F 82% 30.18 in 10.0 mi Calm Calm - N/A   Clear
8:35 AM 59.0 °F 50.0 °F 72% 30.19 in 10.0 mi Calm Calm - N/A   Clear
8:55 AM 60.8 °F 50.0 °F 68% 30.19 in 10.0 mi Calm Calm - N/A   Clear
9:15 AM 62.6 °F 51.8 °F 68% 30.18 in 10.0 mi Calm Calm - N/A   Clear
9:35 AM 64.4 °F 50.0 °F 59% 30.18 in 10.0 mi Calm Calm - N/A   Clear
9:55 AM 66.2 °F 50.0 °F 56% 30.18 in 10.0 mi Calm Calm - N/A   Clear
10:15 AM 66.2 °F 50.0 °F 56% 30.20 in 10.0 mi Calm Calm - N/A   Clear
10:35 AM 68.0 °F 50.0 °F 52% 30.19 in 10.0 mi Calm Calm - N/A   Clear
10:55 AM 69.8 °F 50.0 °F 49% 30.19 in 10.0 mi Calm Calm - N/A   Clear
11:15 AM 69.8 °F 48.2 °F 46% 30.18 in 10.0 mi Calm Calm - N/A   Clear
11:35 AM 71.6 °F 44.6 °F 38% 30.18 in 10.0 mi North 8.1 mph - N/A   Clear
11:55 AM 73.4 °F 44.6 °F 36% 30.17 in 10.0 mi North 3.5 mph - N/A   Clear
12:15 PM 71.6 °F 44.6 °F 38% 30.16 in 10.0 mi Calm Calm - N/A   Clear
12:35 PM 73.4 °F 44.6 °F 36% 30.16 in 10.0 mi Calm Calm - N/A   Clear
12:55 PM 73.4 °F 44.6 °F 36% 30.15 in 10.0 mi NNE 4.6 mph - N/A   Clear
1:15 PM 73.4 °F 44.6 °F 36% 30.14 in 10.0 mi North 6.9 mph - N/A   Clear
1:35 PM 73.4 °F 42.8 °F 33% 30.14 in 10.0 mi Calm Calm - N/A   Clear
1:55 PM 75.2 °F 44.6 °F 34% 30.13 in 10.0 mi Calm Calm - N/A   Clear
2:15 PM 75.2 °F 44.6 °F 34% 30.12 in 10.0 mi Calm Calm - N/A   Clear
2:35 PM 75.2 °F 42.8 °F 31% 30.12 in 10.0 mi Calm Calm - N/A   Clear
2:55 PM 77.0 °F 44.6 °F 32% 30.11 in 10.0 mi NE 3.5 mph - N/A   Clear
3:15 PM 75.2 °F 42.8 °F 31% 30.10 in 10.0 mi Calm Calm - N/A   Clear
3:35 PM 75.2 °F 42.8 °F 31% 30.10 in 10.0 mi NNE 8.1 mph 18.4 mph N/A   Clear
3:55 PM 77.0 °F 42.8 °F 29% 30.10 in 10.0 mi ENE 4.6 mph - N/A   Clear
4:15 PM 77.0 °F 42.8 °F 29% 30.09 in 10.0 mi Calm Calm - N/A   Clear
4:35 PM 77.0 °F 42.8 °F 29% 30.09 in 10.0 mi NNE 4.6 mph - N/A   Clear
4:55 PM 75.2 °F 42.8 °F 31% 30.09 in 10.0 mi Calm Calm - N/A   Clear
5:15 PM 75.2 °F 42.8 °F 31% 30.08 in 10.0 mi NE 9.2 mph - N/A   Clear
5:35 PM 73.4 °F 42.8 °F 33% 30.08 in 10.0 mi Calm Calm - N/A   Clear
5:55 PM 71.6 °F 44.6 °F 38% 30.08 in 10.0 mi Calm Calm - N/A   Clear
6:15 PM 71.6 °F 46.4 °F 41% 30.08 in 10.0 mi Calm Calm - N/A   Clear
6:35 PM 71.6 °F 46.4 °F 41% 30.07 in 10.0 mi Calm Calm - N/A   Clear
6:55 PM 68.0 °F 46.4 °F 46% 30.07 in 10.0 mi Calm Calm - N/A   Clear
7:15 PM 68.0 °F 46.4 °F 46% 30.07 in 10.0 mi Calm Calm - N/A   Clear
7:35 PM 64.4 °F 46.4 °F 52% 30.07 in 10.0 mi Calm Calm - N/A   Clear
7:55 PM 62.6 °F 46.4 °F 55% 30.07 in 10.0 mi Calm Calm - N/A   Clear
8:15 PM 62.6 °F 46.4 °F 55% 30.08 in 10.0 mi Calm Calm - N/A   Clear
8:35 PM 62.6 °F 46.4 °F 55% 30.08 in 10.0 mi Calm Calm - N/A   Clear
8:55 PM 62.6 °F 46.4 °F 55% 30.08 in 10.0 mi Calm Calm - N/A   Clear
9:15 PM 60.8 °F 46.4 °F 59% 30.09 in 10.0 mi Calm Calm - N/A   Clear
9:35 PM 60.8 °F 46.4 °F 59% 30.09 in 10.0 mi Calm Calm - N/A   Clear
9:55 PM 59.0 °F 46.4 °F 63% 30.09 in 10.0 mi Calm Calm - N/A   Clear
10:15 PM 59.0 °F 46.4 °F 63% 30.09 in 10.0 mi Calm Calm - N/A   Clear
10:35 PM 59.0 °F 46.4 °F 63% 30.09 in 10.0 mi Calm Calm - N/A   Clear
10:55 PM 59.0 °F 46.4 °F 63% 30.09 in 10.0 mi Calm Calm - N/A   Clear
11:15 PM 57.2 °F 48.2 °F 72% 30.10 in 10.0 mi Calm Calm - N/A   Clear
11:35 PM 55.4 °F 48.2 °F 77% 30.10 in 10.0 mi Calm Calm - N/A   Clear
11:55 PM 55.4 °F 48.2 °F 77% 30.09 in 10.0 mi Calm Calm - N/A   Clear